www.pogodaiklimat.ru

Погода и климат >> Архив погоды >> Украина >> Ямполь


ПОГОДА в Ямполе

  • Прогноз погоды в Ямполе
  • Монитор погоды в Ямполе

АРХИВ ПОГОДЫ в Ямполе

Время (UTC), дата Ветер
(напр.,м/с)
 
Видим.   Явления Облачность Т
(С)
Тd
(С)
f
(%)
Тe
(С)
Тes
(С)
Комфортность P
(гПа)
Po
(гПа)
Тmin
(С)
Tmax
(С)
R
(мм)
R24
(мм)
S
(см)
18 13.09 З 4 10 км 3/0
[Ac trans]
+18.3 +9.6 57 +18 +18 1024.8 991.5 +25.5
21 13.09 З 4 10 км 9/6 600 м
[Sc Ac trans]
+15.8 +10.1 69 +15 +15 1024.6 991.0
00 14.09 З 5 10 км 9/9 700 м
[Sc]
+18.1 +13.0 72 +18 +18 1024.0 990.7
03 14.09 З 4 10 км 9/8 600 м
[Sc Ac trans]
+16.4 +12.6 78 +16 +16 1024.3 990.8
06 14.09 СЗ 6 30 км {ливн. осадки} 9/6 300 м
[Cb calv Ac trans]
+12.2 +11.3 94 +9 +10 1027.8 993.7 +11.7 1
09 14.09 С 7 35 км 8/8 600 м
[Cu med, cong Ci fib]
+16.3 +7.8 57 +15 +15 1028.3 994.6
12 14.09 СЗ 6 50 км 6/5 600 м
[Cu hum Ci fib]
+19.0 +3.0 34 +19 +20 1027.4 994.1
15 14.09 С 5 50 км 8/4 600 м
[Sc diur, vesp Ci]
+17.3 +3.3 39 +17 +17 1026.9 993.4
18 14.09 С 3 10 км 3/3 600 м
[Sc]
+12.8 +5.1 59 +12 +12 1028.4 994.3 +20.3
21 14.09 С 3 10 км 4/0
[Ac trans]
+10.6 +4.4 65 +9 +9 1029.0 994.6
00 15.09 З 2 10 км 4/0
[Ci fib]
+6.2 +3.9 85 +4 +4 1029.2 994.3
03 15.09 З 3 10 км 3/0
[Ci fib]
+5.5 +3.8 89 +2 +2 1028.7 993.7
06 15.09 ЮЗ 1 22 км 3/0
[Ci fib]
+8.3 +5.4 82 +8 +10 1027.9 993.3 +4.2
09 15.09 З 4 35 км 4/1 600 м
[Cu hum Ci fib]
+17.7 +3.4 39 +17 +22 1025.3 991.9
12 15.09 З 4 50 км 3/0
[Ci fib]
+20.2 +1.8 29 +21 +25 комфорт 1022.3 989.3
15 15.09 З 3 28 км 8/0
[Ci ing]
+20.4 +1.2 28 +21 +22 комфорт 1019.6 986.7
18 15.09 ЮЗ 2 10 км 4/0
[Ci ing]
+14.4 +2.6 45 +14 +14 1018.6 985.0 +21.3
21 15.09 З 2 10 км 3/0
[Ci fib]
+10.2 +3.9 65 +9 +9 1018.0 984.0
00 16.09 ЮЗ 3 10 км 1/0
[Ci fib]
+10.3 +5.1 70 +8 +8 1017.0 983.0
03 16.09 ЮЗ 3 10 км 5/0
[Ci fib]
+10.0 +5.7 75 +8 +8 1015.5 981.5
06 16.09 З 4 21 км 8/0
[Ac trans Ci]
+13.8 +7.6 66 +12 +13 1014.9 981.4 +8.2
09 16.09 З 7 28 км 9/6 600 м
[Sc Ac trans]
+20.0 +7.4 44 +20 +21 1013.9 981.1
12 16.09 СЗ 10 30 км 10/6 600 м
[Cb calv Ac As]
+19.8 +8.4 48 +20 +20 1012.9 980.1
15 16.09 З 9 29 км слаб. ливневой дождь 9/8 660 м
[Cb calv Ac trans]
+18.4 +8.4 52 +18 +18 1012.4 979.5
18 16.09 СЗ 4 10 км {ливн. осадки} 10/8 700 м
[Sc Ac As]
+16.5 +5.1 47 +16 +16 1012.5 979.4 +21.4 0.0
21 16.09 З 2 10 км {ливн. осадки} 10/8 600 м
[Cb calv Ac As]
+13.2 +9.3 77 +13 +13 1012.4 978.9
00 17.09 З 3 10 км {ливн. осадки} 9/8 750 м
[Sc Ac trans]
+12.2 +7.3 72 +11 +11 1012.6 979.0
03 17.09 З 3 10 км 8/4 600 м
[Sc Ac trans]
+10.8 +8.4 85 +9 +9 1012.6 978.8
06 17.09 З 4 23 км 3/0
[Ac trans]
+11.5 +7.4 76 +9 +10 1013.1 979.4 +9.5 0.0
09 17.09 З 6 35 км 8/8 600 м
[Cu med, cong]
+15.5 +4.2 47 +14 +15 1011.8 978.6
12 17.09 СЗ 6 50 км 6/5 600 м
[Cu med, cong Ac trans]
+17.2 +4.8 44 +16 +18 1010.1 977.1
15 17.09 З 7 30 км 9/8 600 м
[Cb calv Ac trans]
+16.0 +4.1 45 +15 +15 1008.6 975.5
18 17.09 З 6 10 км 9/5 600 м
[Cb calv Ac trans]
+14.0 +5.7 57 +12 +12 1008.3 975.0 +18.4
21 17.09 З 4 10 км 3/0
[Ac trans]
+9.2 +5.7 79 +6 +6 1006.7 972.9
00 18.09 З 3 10 км 6/3 600 м
[Cb calv Ac trans]
+10.4 +7.1 80 +8 +8 1005.7 972.1
06 18.09 З 12 30 км {ливн. осадки} 5/5 600 м
[Cb calv]
+8.9 +2.9 66 +4 +4 1009.0 975.1 +6.7 0.0
12 18.09 З 7 25 км слаб. ливневой дождь 10/10 300 м
[Cb cap]
+9.5 +6.3 80 +6 +6 1012.9 978.9
18 18.09 З 3 10 км {ливн. осадки} 4/4 600 м
[Sc]
+8.4 +4.8 78 +6 +6 1017.4 983.2 +11.0 1
00 19.09 З 3 10 км 4/0
[Ac trans]
+7.0 +4.2 82 +4 +4 1019.3 984.8
06 19.09 З 4 22 км 9/6 600 м
[Sc Ac trans]
+7.8 +5.1 83 +4 +5 1020.1 985.7 +3.7
12 19.09 СЗ 3 50 км {ливн. осадки} 5/3 600 м
[Cb calv Ac trans]
+14.8 +2.0 42 +14 +18 1019.9 986.3
18 19.09 З 3 10 км 3/0
[Ac trans]
+8.2 +3.3 71 +6 +6 1021.6 987.2 +15.1 0.0
00 20.09 З 2 10 км 3/0
[Ac trans]
+3.2 +2.5 95 0 0 1022.7 987.6
06 20.09 З 4 23 км 9/6 600 м
[Cb calv Ac trans]
+6.5 +4.7 88 +3 +3 1022.6 988.0 +2.7
12 20.09 СЗ 7 50 км в посл. час ливневой дождь 8/6 300 м
[Cb cap Ac trans]
+11.0 +3.8 61 +8 +8 1021.4 987.3

 

Местоположение метеостанции Ямполь (Хмельницкая область, Украина): широта 49.97 долгота 26.25 высота над уровнем моря 282 м.

В архиве по умолчанию представлена погода в Ямполе за последнюю неделю. Архивные данные за месяц целиком и за предыдущие месяцы, начиная с января 2011 года, Вы можете получить, выбрав интересующий диапазон дат из раскрывающегося списка и нажав кнопку "Ввод!".


*Определитесь, кто Вы:
робот инопланетянин человек

Внимание! Время в таблицах - всемирное. Для получения местного времени необходимо прибавить поправку, которая равна 2 ч.

Смотрите также архив погоды в соседних городах и на ближайших метеорологических станциях:

Погода в Кременце (Тернопольская область, Украина) (41 км)
Погода в Шепетовке (Хмельницкая область, Украина) (60 км)
Погода в Дубно (Ровенская область, Украина) (61 км)
Погода в Тернополе (Тернопольская область, Украина) (64 км)
Погода в Ровно (Ровенская область, Украина) (68 км)
Погода в Хмельницком (Хмельницкая область, Украина) (80 км)
Погода в Бродах (Львовская область, Украина) (80 км)
Погода в Луцке (Волынская область, Украина) (97 км)
Погода в Чорткове (Тернопольская область, Украина) (111 км)
Погода в Бережанах (Львовская область, Украина) (111 км)

Пояснения к столбцам:

Ветер - указаны скорость ветра в м/с - средняя за 10 мин, порывы в срок и между сроками (в фигурных скобках) и направление, откуда дует ветер: С - северный, СВ - северо-восточный, В - восточный, ЮВ - юго-восточный, Ю - южный, ЮЗ - юго-западный, З - западный, СЗ - северо-западный.
Видимость - горизонтальная дальность видимости в метрах или километрах. При видимости от 1 до 10 км при отсутствии осадков обычно наблюдается дымка, при ухудшении видимости до 1 км и менее - туман. В сухую погоду видимость может ухудшаться дымом, пылью или мглою.
Явления - указаны атмосферные явления, наблюдавшиеся в срок или в последний час перед сроком; фигурными скобками обозначены явления, наблюдавшиеся между сроками (за 1-3 часа до срока); квадратными скобками обозначены град или гололедные отложения с указанием их диаметра в мм.
Облачность - указаны через наклонную черту общая и нижняя облачность в баллах и высота нижней границы облаков в метрах; квадратными скобками обозначены формы облаков: Ci - перистые, Cs - перисто-слоистые, Cc - перисто-кучевые, Ac - высококучевые, As - высокослоистые, Sc - слоисто-кучевые, Ns - слоисто-дождевые, Cu - кучевые, Cb - кучево-дождевые. Подробнее классификацию облаков см. в Атласе облаков (PDF).
T - Температура воздуха - температура, измеренная на высоте 2 м над землей.
Td - Температура точки росы - температура, при понижении до которой содержащийся в воздухе водяной пар достигнет насыщения.
f - Относительная влажность воздуха - влажноcть воздуха, измеренная на высоте 2 м над землей.
Te - Эффективная температура - температура, которую ощущает одетый по сезону человек в тени. Характеристика душности погоды. При расчете учитывается влияние влажности воздуха и скорости ветра на теплоощущения человека.
Tes - Эффективная температура на солнце - температура, которую ощущает человек, с поправкой на солнечный нагрев. Характеристика знойности погоды. Зависит от высоты солнца над горизонтом, облачности и скорости ветра. Ночью, в пасмурную погоду, а также при ветре 12 м/с и более поправка равна нулю.
P - Атмосферное давление - приведенное к уровню моря атмосферное давление.
Po - Атмосферное давление - измеренное на уровне метеостанции атмосферное давление.
Tmin - Минимальная температура - минимум температуры воздуха на высоте 2 м над землей.
Tmax - Максимальная температура - максимум температуры воздуха на высоте 2 м над землей.
R - Количество осадков - Количество выпавших осадков за период времени, мм. При наведении курсора мыши на число - период времени, за который выпало указанное количество осадков.
R24 - Количество осадков - Количество выпавших осадков за 24 часа, мм.
S - Снежный покров - Высота снежного покрова, см. При наведении курсора мыши на число - состояние снежного покрова и степень покрытия местности в баллах.